Weather History for Bangor, ME

Change the Weather History Date:

Friday, March 16, 2012

  Actual Average Record
Temperature  
Mean Temperature 34 °F 30 °F  
Max Temperature 36 °F 40 °F 60 °F (2010)
Min Temperature 32 °F 21 °F 1 °F (1956)
Degree Days  
Heating Degree Days 31 35  
Month to date heating degree days 529 600  
Since 1 July heating degree days 5368 6246  
Cooling Degree Days 0 0  
Month to date cooling degree days 0 0  
Year to date cooling degree days 0 0  
Moisture  
Dew Point 31 °F    
Average Humidity 91    
Maximum Humidity 100    
Minimum Humidity 82    
Precipitation  
Precipitation 0.10 in 0.11 in 1.40 in (1937)
Month to date precipitation 1.00 1.62  
Year to date precipitation 4.50 7.03  
Snow  
Snow 0.00 in 0.40 in 7.30 in (1976)
Month to date snowfall 5.6 7.0  
Since 1 July snowfall 47.1 57.7  
Snow Depth 0.00 in    
Sea Level Pressure  
Sea Level Pressure 30.21 in    
Wind  
Wind Speed 3 mph (South)    
Max Wind Speed 13 mph    
Max Gust Speed 15 mph    
Visibility 9 miles    
Events Rain    
T = Trace of Precipitation, MM = Missing Value Source: NWS Daily Summary

Daily Weather History Graph

Daily Weather History Graph

Search for Another Location

Airport:

Trip Planner

Search our weather history database for the weather conditions in past years. The results will help you decide how hot, cold, wet, or windy it might be!

Date:

Astronomy

Mar. 16, 2012 Rise Set
Actual Time 6:45 AM EDT 6:43 PM EDT
Civil Twilight 6:15 AM EDT 7:12 PM EDT
Nautical Twilight 5:41 AM EDT 7:46 PM EDT
Astronomical Twilight 5:07 AM EDT 8:21 PM EDT
Moon 3:14 AM EDT (3/16) 12:46 PM EDT (3/16)
Length of Visible Light 12h 56m
Length of Day
11h 58m
Waning Crescent, 33% of the Moon is Illuminated
Mar 16
Waning Crescent
Mar 22
New
Mar 30
First Quarter
Apr 6
Full
Apr 13
Last Quarter

Hourly Weather History & Observations

Time (EDT) Temp. Windchill Dew Point Humidity Pressure Visibility Wind Dir Wind Speed Gust Speed Precip Events Conditions
12:53 AM 33.1 °F - 28.0 °F 82% 30.34 in 10.0 mi Calm Calm - N/A   Overcast
1:53 AM 32.0 °F - 28.0 °F 85% 30.33 in 10.0 mi Calm Calm - N/A   Overcast
2:53 AM 32.0 °F - 28.0 °F 85% 30.32 in 10.0 mi Calm Calm - N/A   Overcast
3:53 AM 32.0 °F 28.7 °F 28.0 °F 85% 30.31 in 10.0 mi WSW 3.5 mph - N/A   Overcast
4:53 AM 33.1 °F - 28.0 °F 82% 30.30 in 10.0 mi Calm Calm - N/A   Overcast
5:53 AM 33.1 °F - 28.0 °F 82% 30.29 in 10.0 mi Calm Calm - N/A   Overcast
6:50 AM 32.0 °F - 28.4 °F 87% 30.29 in 10.0 mi Calm Calm - N/A   Overcast
6:53 AM 32.0 °F - 28.9 °F 88% 30.30 in 10.0 mi Calm Calm - N/A   Overcast
7:53 AM 33.1 °F - 28.0 °F 82% 30.29 in 10.0 mi Calm Calm - N/A   Overcast
8:53 AM 33.1 °F 27.7 °F 28.0 °F 82% 30.27 in 10.0 mi SSE 5.8 mph - N/A   Overcast
9:53 AM 34.0 °F 28.8 °F 28.9 °F 82% 30.26 in 10.0 mi SE 5.8 mph - 0.00 in Rain Light Rain
10:53 AM 34.0 °F 28.8 °F 30.9 °F 89% 30.25 in 8.0 mi South 5.8 mph - 0.02 in Rain Light Rain
11:11 AM 33.8 °F 28.6 °F 30.2 °F 87% 30.24 in 9.0 mi South 5.8 mph - 0.00 in Rain Light Rain
11:47 AM 33.8 °F 28.6 °F 30.2 °F 87% 30.23 in 9.0 mi South 5.8 mph - 0.01 in Rain Light Rain
11:53 AM 33.8 °F 28.6 °F 30.2 °F 87% 30.23 in 10.0 mi South 5.8 mph - N/A Rain Light Rain
12:37 PM 33.8 °F 28.6 °F 30.2 °F 87% 30.20 in 7.0 mi South 5.8 mph - 0.01 in Rain Light Rain
12:53 PM 34.0 °F 27.2 °F 32.0 °F 92% 30.20 in 6.0 mi SSE 8.1 mph - 0.01 in Rain Light Rain
1:53 PM 35.1 °F 27.9 °F 33.1 °F 92% 30.17 in 10.0 mi South 9.2 mph - 0.03 in   Overcast
2:16 PM 35.6 °F 28.0 °F 33.8 °F 93% 30.15 in 10.0 mi South 10.4 mph - N/A   Overcast
2:53 PM 36.0 °F 28.5 °F 33.1 °F 89% 30.15 in 10.0 mi South 10.4 mph - N/A   Overcast
3:53 PM 35.1 °F 28.6 °F 33.1 °F 92% 30.13 in 10.0 mi South 8.1 mph - 0.00 in Rain Light Rain
4:34 PM 35.6 °F 30.7 °F 33.8 °F 93% 30.11 in 5.0 mi South 5.8 mph - 0.02 in Rain Light Rain
4:51 PM 35.6 °F 31.7 °F 33.8 °F 93% 30.11 in 7.0 mi South 4.6 mph - 0.02 in Rain Light Rain
4:52 PM 35.1 °F 31.0 °F 34.0 °F 96% 30.12 in 7.0 mi South 4.6 mph - 0.02 in Rain Light Rain
5:53 PM 35.1 °F 32.2 °F 34.0 °F 96% 30.12 in 7.0 mi South 3.5 mph - 0.01 in Rain Light Rain
6:53 PM 35.1 °F - 34.0 °F 96% 30.13 in 8.0 mi Calm Calm - 0.00 in Rain Light Rain
7:12 PM 35.6 °F - 33.8 °F 93% 30.12 in 10.0 mi Calm Calm - 0.00 in   Overcast
7:53 PM 35.1 °F - 34.0 °F 96% 30.13 in 10.0 mi Calm Calm - 0.00 in   Overcast
8:28 PM 35.6 °F 31.7 °F 33.8 °F 93% 30.12 in 10.0 mi SSW 4.6 mph - N/A   Overcast
8:53 PM 35.1 °F 32.2 °F 34.0 °F 96% 30.14 in 8.0 mi SW 3.5 mph - N/A   Overcast
9:53 PM 36.0 °F - 34.0 °F 93% 30.14 in 7.0 mi Calm Calm - N/A   Overcast
10:53 PM 36.0 °F - 34.0 °F 93% 30.14 in 7.0 mi Calm Calm - N/A   Overcast
11:53 PM 36.0 °F - 35.1 °F 97% 30.15 in 8.0 mi Calm Calm - N/A   Overcast